This is the latest recevied weather packets stored in our database for station/object N5CNB-2. If no packets are shown the sender has not sent any weather packets the latest 1 day(s).
| Time | Temp. | Humidity | Pressure | Rain* | Wind** | Luminosity | Snow |
|---|---|---|---|---|---|---|---|
| 1836274720 | 26.11° C | 77% | 1016.1 hPa | 0 mm | 0 m/s | - | - |
| 1778041853 | 24.44° C | 87% | 1009.1 hPa | 0 mm | 0.45 m/s, 188° | - | - |
| 1778040964 | 24.44° C | 87% | 1008.9 hPa | 0 mm | 0.89 m/s, 175° | - | - |
| 1778040054 | 24.44° C | 86% | 1008.8 hPa | 0 mm | 1.79 m/s, 171° | - | - |
| 1778039156 | 25° C | 86% | 1009 hPa | 0 mm | 0.89 m/s, 0° | - | - |
| 1778038252 | 25° C | 86% | 1008.9 hPa | 0 mm | 1.34 m/s, 174° | - | - |
| 1778037355 | 25° C | 86% | 1008.8 hPa | 0 mm | 0.89 m/s, 175° | - | - |
| 1778036455 | 25° C | 85% | 1008.6 hPa | 0 mm | 0.45 m/s, 149° | - | - |
| 1778035556 | 25° C | 85% | 1008.4 hPa | 0 mm | 1.79 m/s, 164° | - | - |
| 1778034666 | 25° C | 85% | 1008.2 hPa | 0 mm | 0.89 m/s, 152° | - | - |
| 1778033771 | 25° C | 85% | 1007.9 hPa | 0 mm | 1.34 m/s, 179° | - | - |
| 1778032850 | 25° C | 85% | 1007.8 hPa | 0 mm | 2.24 m/s, 180° | - | - |
| 1778031956 | 25° C | 84% | 1007.4 hPa | 0 mm | 1.34 m/s, 88° | - | - |
| 1778031067 | 25.56° C | 84% | 1007.2 hPa | 0 mm | 0.45 m/s, 161° | - | - |
| 1778030174 | 25.56° C | 83% | 1007 hPa | 0 mm | 0.89 m/s, 173° | - | - |
| 1778029259 | 25.56° C | 83% | 1006.9 hPa | 0 mm | 1.34 m/s, 184° | - | - |
| 1778028350 | 25.56° C | 82% | 1006.7 hPa | 0 mm | 0.89 m/s, 78° | - | - |
| 1778027455 | 26.11° C | 81% | 1006.7 hPa | 0 mm | 1.34 m/s, 150° | - | - |
| 1778026555 | 26.11° C | 80% | 1006.7 hPa | 0 mm | 0.89 m/s, 171° | - | - |
| 1778025657 | 26.67° C | 80% | 1006.6 hPa | 0 mm | 2.24 m/s, 183° | - | - |
| 1778024755 | 26.67° C | 80% | 1006.3 hPa | 0 mm | 1.34 m/s, 194° | - | - |
| 1778023850 | 26.67° C | 79% | 1006.4 hPa | 0 mm | 1.34 m/s, 184° | - | - |
| 1778022966 | 27.22° C | 79% | 1006.3 hPa | 0 mm | 2.24 m/s, 184° | - | - |
| 1778022053 | 27.22° C | 78% | 1006.1 hPa | 0 mm | 2.24 m/s, 171° | - | - |
| 1778021162 | 27.78° C | 78% | 1006.2 hPa | 0 mm | 2.24 m/s, 153° | - | - |
* Rain latest hour (hover to see other rain measurements)
** Current wind speed in m/s (hover to see current wind gust speed)